Regional Weather Roundup
Issued by NWS Jackson, KY

Home | Current Version | Previous Version | Text Only | Print | Product List | Glossary Off
Versions: 1 2 3 4 5 6 7 8 9 10 11 12 13 14 15 16 17 18 19 20 21 22 23 24 25 26 27 28 29 30 31 32 33 34 35 36 37 38 39 40 41 42 43 44 45 46 47 48 49 50

000
ASUS43 KJKL 041110
RWRJKL

EAST KENTUCKY HOURLY WEATHER ROUNDUP
NATIONAL WEATHER SERVICE JACKSON KY
700 AM EDT TUE AUG 04 2015

NOTE: "FAIR" INDICATES FEW OR NO CLOUDS BELOW 12,000 FEET WITH
NO SIGNIFICANT WEATHER AND/OR OBSTRUCTIONS TO VISIBILITY.

* THESE REPORTS ARE NOT UNDER NWS QUALITY CONTROL AND MAY NOT
  REPORT WEATHER SUCH AS PRECIPITATION AND FOG.

KYZ079-080-083-085-087-088-110-112-115-119-120-041200
...EASTERN KENTUCKY...

CITY           SKY/WX    TMP DP  RH WIND       PRES   REMARKS
JACKSON        PTCLDY    66  64  93 CALM      30.00R
LONDON         PTCLDY    68  63  84 CALM      30.01R HAZE
SOMERSET*      CLEAR     68  68 100 CALM      30.01R FOG
MONTICELLO*    CLEAR     68  68 100 CALM      30.03R FOG
MIDDLESBORO*   PTCLDY    68  67  98 CALM      30.03R
HAZARD APT*    SUNNY     66  66 100 CALM      30.00R
BLACK MTN*       N/A     66  63  88 S2          N/A
PIKEVILLE APT* CLEAR     66  64  94 CALM      30.00R
BIG SANDY*     SUNNY     67  66  98 CALM      29.99R
MOREHEAD APT*  SUNNY     66  64  94 CALM      29.99S FOG
$$

KYZ035-036-041-042-044-050-067-078-099-041200
...CENTRAL KENTUCKY...

CITY           SKY/WX    TMP DP  RH WIND       PRES   REMARKS
MT STERLING*   CLEAR     66  66 100 SW3       29.99R
FLEMING/MASON* FOG       63  63 100 E3        30.00R VSB 1/4
DANVILLE*      CLEAR     70  68  94 CALM      30.01R
RICHMOND*      CLEAR     72  68  88 CALM      29.98R
LEXINGTON      PTCLDY    69  67  93 S3        29.98R
FRANKFORT      PTCLDY    68  66  93 CALM      29.97R
$$

KYZ091>093-OHZ055-061-077-WVZ005-015-034-035-042-041200
...SOUTHERN OHIO/WEST VIRGINIA...

CITY           SKY/WX    TMP DP  RH WIND       PRES   REMARKS
COVINGTON      PTCLDY    65  63  93 CALM      29.97R
COLUMBUS       PTCLDY    62  60  93 CALM      29.97R
DAYTON         PTCLDY    63  55  75 S3        29.98R
WILMINGTON     PTCLDY    61  59  93 CALM      29.98R
HUNTINGTON     CLEAR     63  63 100 CALM      29.98R
CHARLESTON     PTCLDY    63  61  93 CALM      29.99R
PINEVILLE*     PTCLDY    62  62 100 MISG      30.08R FOG
BECKLEY        PTCLDY    63  58  83 SW8       30.06R
BLUEFIELD      PTCLDY    68  59  73 W5        30.08R
$$

VAZ002-007-008-TNZ017-027-036-066-071-041200
...SOUTHWEST VIRGINIA/EAST TENNESSEE...

CITY           SKY/WX    TMP DP  RH WIND       PRES   REMARKS
WISE*          PTCLDY    66  64  94 CALM      30.09R
ABINGDON*      MOCLDY    66  61  85 CALM      30.07R
BRISTOL        MOCLDY    65  62  90 CALM      30.04R
KNOXVILLE      PTCLDY    69  63  81 CALM      30.01R
OAK RIDGE      CLEAR     69  66  90 CALM      30.03R
CROSSVILLE     CLEAR     66  64  93 CALM      30.07R FOG
NASHVILLE      PTCLDY    72  68  87 CALM      29.99R
$$

...KEY TO REMARKS...
VSB - VISIBILITY IN MILES
WCI - WIND CHILL INDEX
HX  - HEAT INDEX

$$



USA.gov is the U.S. government's official web portal to all federal, state and local government web resources and services.